Location: Recife
(8.0585°S, 34.8848°W)
Time: 04:32:40
(UTC-03:00)

Courier 1B - Pass Details

Date: 23 April 2026
Orbit: 962 x 1209 km, 28.3° (Epoch: 14 May)

Event Time Altitude Azimuth Distance (km) Brightness Sun altitude
Rises 05:46:59 0° 247° (WSW) 3,955 10.0 5.3°
Reaches altitude 10° 05:50:54 10° 227° (SW) 3,043 9.6 6.2°
Maximum altitude 05:55:38 17° 188° (S) 2,576 9.6 7.3°
Drops below altitude 10° 06:00:28 10° 149° (SSE) 3,127 10.4 8.5°
Sets 06:04:35 0° 130° (SE) 4,109 11.3 9.5°
